Time,TemperatureF,DewpointF,PressureIn,WindDirection,WindDirectionDegrees,WindSpeedMPH,WindSpeedGustMPH,Humidity,HourlyPrecipIn,Conditions,Clouds,dailyrainin,SoftwareType,DateUTC
2013-03-17 00:00:00,18.5,14.2,29.94,NW,307,6.0,9.0,83,0.00,,---,0.00,VWS V14.01,2013-03-17 04:00:00,
2013-03-17 00:01:00,18.5,14.2,29.94,NW,319,4.0,9.0,83,0.00,,---,0.00,VWS V14.01,2013-03-17 04:01:00,
2013-03-17 00:02:00,18.5,14.2,29.94,NW,304,4.0,9.0,83,0.00,,---,0.00,VWS V14.01,2013-03-17 04:02:00,
2013-03-17 00:07:00,18.4,13.3,29.94,NW,305,10.0,14.0,80,0.00,,---,0.00,VWS V14.01,2013-03-17 04:07:00,
2013-03-17 00:12:00,18.4,13.0,29.94,NW,305,7.0,13.0,79,0.00,,---,0.00,VWS V14.01,2013-03-17 04:12:00,
2013-03-17 00:14:00,18.3,12.9,29.94,NW,309,7.0,13.0,79,0.00,,---,0.00,VWS V14.01,2013-03-17 04:14:00,
2013-03-17 00:20:00,18.1,12.7,29.95,NW,315,6.0,13.0,79,0.00,,---,0.00,VWS V14.01,2013-03-17 04:20:00,
2013-03-17 00:25:00,17.9,12.2,29.95,WNW,302,9.0,10.0,78,0.00,,---,0.00,VWS V14.01,2013-03-17 04:25:00,
2013-03-17 00:30:00,17.7,12.0,29.95,WNW,303,5.0,12.0,78,0.00,,---,0.00,VWS V14.01,2013-03-17 04:30:00,
2013-03-17 00:35:00,17.5,11.8,29.94,NW,316,8.0,9.0,78,0.00,,---,0.00,VWS V14.01,2013-03-17 04:35:00,
2013-03-17 00:40:00,17.4,11.7,29.95,WNW,301,7.0,12.0,78,0.00,,---,0.00,VWS V14.01,2013-03-17 04:40:00,
2013-03-17 00:45:00,17.3,11.6,29.94,NW,314,8.0,11.0,78,0.00,,---,0.00,VWS V14.01,2013-03-17 04:45:00,
2013-03-17 00:50:00,17.3,11.9,29.94,WNW,301,11.0,13.0,79,0.00,,---,0.00,VWS V14.01,2013-03-17 04:50:00,
2013-03-17 00:55:00,17.2,11.8,29.93,NW,309,7.0,13.0,79,0.00,,---,0.00,VWS V14.01,2013-03-17 04:55:00,
2013-03-17 01:00:00,17.0,11.6,29.93,WNW,297,9.0,10.0,79,0.00,,---,0.00,VWS V14.01,2013-03-17 05:00:00,
2013-03-17 01:05:00,17.0,11.6,29.94,NW,314,10.0,12.0,79,0.00,,---,0.00,VWS V14.01,2013-03-17 05:05:00,
2013-03-17 01:10:00,16.9,11.5,29.94,WNW,298,7.0,10.0,79,0.00,,---,0.00,VWS V14.01,2013-03-17 05:10:00,
2013-03-17 01:15:00,16.8,11.4,29.94,NW,318,7.0,9.0,79,0.00,,---,0.00,VWS V14.01,2013-03-17 05:15:00,
2013-03-17 01:20:00,16.6,11.5,29.94,NW,305,5.0,10.0,80,0.00,,---,0.00,VWS V14.01,2013-03-17 05:20:00,
2013-03-17 01:25:00,16.4,11.3,29.94,WNW,297,6.0,7.0,80,0.00,,---,0.00,VWS V14.01,2013-03-17 05:25:00,
2013-03-17 01:30:00,16.4,11.3,29.94,NW,321,5.0,9.0,80,0.00,,---,0.00,VWS V14.01,2013-03-17 05:30:00,
2013-03-17 01:35:00,16.3,11.5,29.94,WNW,292,5.0,8.0,81,0.00,,---,0.00,VWS V14.01,2013-03-17 05:35:00,
2013-03-17 01:40:00,16.2,11.4,29.94,WNW,301,6.0,8.0,81,0.00,,---,0.00,VWS V14.01,2013-03-17 05:40:00,
2013-03-17 01:46:00,16.0,11.5,29.95,WNW,288,7.0,9.0,82,0.00,,---,0.00,VWS V14.01,2013-03-17 05:46:00,
2013-03-17 01:51:00,16.1,11.9,29.95,WNW,300,9.0,9.0,83,0.00,,---,0.00,VWS V14.01,2013-03-17 05:51:00,
2013-03-17 01:56:00,16.0,11.8,29.95,NW,319,6.0,8.0,83,0.00,,---,0.00,VWS V14.01,2013-03-17 05:56:00,
2013-03-17 02:01:00,16.1,11.9,29.95,West,274,11.0,11.0,83,0.00,,---,0.00,VWS V14.01,2013-03-17 06:01:00,
2013-03-17 02:06:00,16.1,11.9,29.96,WNW,300,7.0,11.0,83,0.00,,---,0.00,VWS V14.01,2013-03-17 06:06:00,
2013-03-17 02:11:00,16.2,12.0,29.96,WNW,292,8.0,12.0,83,0.00,,---,0.00,VWS V14.01,2013-03-17 06:11:00,
2013-03-17 02:16:00,16.0,11.8,29.96,WNW,301,6.0,9.0,83,0.00,,---,0.00,VWS V14.01,2013-03-17 06:16:00,
2013-03-17 02:21:00,15.9,11.7,29.96,WNW,302,8.0,10.0,83,0.00,,---,0.00,VWS V14.01,2013-03-17 06:21:00,
2013-03-17 02:26:00,15.9,11.7,29.97,NW,305,6.0,9.0,83,0.00,,---,0.00,VWS V14.01,2013-03-17 06:26:00,
2013-03-17 02:31:00,15.8,11.3,29.96,NW,315,7.0,9.0,82,0.00,,---,0.00,VWS V14.01,2013-03-17 06:31:00,
2013-03-17 02:36:00,15.6,11.1,29.97,NW,310,3.0,8.0,82,0.00,,---,0.00,VWS V14.01,2013-03-17 06:36:00,
2013-03-17 02:41:00,15.3,10.5,29.97,WNW,303,7.0,11.0,81,0.00,,---,0.00,VWS V14.01,2013-03-17 06:41:00,
2013-03-17 02:46:00,15.0,10.2,29.98,WNW,293,10.0,10.0,81,0.00,,---,0.00,VWS V14.01,2013-03-17 06:46:00,
2013-03-17 02:51:00,14.9,10.1,29.98,NW,316,5.0,11.0,81,0.00,,---,0.00,VWS V14.01,2013-03-17 06:51:00,
2013-03-17 02:56:00,14.7,9.9,29.98,NW,304,10.0,14.0,81,0.00,,---,0.00,VWS V14.01,2013-03-17 06:56:00,
2013-03-17 03:01:00,14.7,9.9,29.98,WNW,302,5.0,13.0,81,0.00,,---,0.00,VWS V14.01,2013-03-17 07:01:00,
2013-03-17 03:06:00,14.5,9.7,29.98,NW,304,6.0,12.0,81,0.00,,---,0.00,VWS V14.01,2013-03-17 07:06:00,
2013-03-17 03:11:00,14.5,9.7,29.98,NW,314,8.0,14.0,81,0.00,,---,0.00,VWS V14.01,2013-03-17 07:11:00,
2013-03-17 03:16:00,14.4,9.4,29.98,WNW,301,10.0,11.0,80,0.00,,---,0.00,VWS V14.01,2013-03-17 07:16:00,
2013-03-17 03:21:00,14.4,9.4,29.99,NW,314,7.0,14.0,80,0.00,,---,0.00,VWS V14.01,2013-03-17 07:21:00,
2013-03-17 03:26:00,14.4,9.4,29.99,WNW,293,7.0,12.0,80,0.00,,---,0.00,VWS V14.01,2013-03-17 07:26:00,
2013-03-17 03:31:00,14.4,9.4,29.99,NW,308,11.0,13.0,80,0.00,,---,0.00,VWS V14.01,2013-03-17 07:31:00,
2013-03-17 03:36:00,14.4,9.1,29.99,WNW,290,4.0,12.0,79,0.00,,---,0.00,VWS V14.01,2013-03-17 07:36:00,
2013-03-17 03:41:00,14.4,9.1,29.99,WNW,293,7.0,13.0,79,0.00,,---,0.00,VWS V14.01,2013-03-17 07:41:00,
2013-03-17 03:46:00,14.3,9.0,29.99,WNW,298,12.0,12.0,79,0.00,,---,0.00,VWS V14.01,2013-03-17 07:46:00,
2013-03-17 03:51:00,14.3,9.0,29.99,WNW,290,6.0,11.0,79,0.00,,---,0.00,VWS V14.01,2013-03-17 07:51:00,
2013-03-17 03:56:00,14.2,8.9,29.99,WNW,302,12.0,15.0,79,0.00,,---,0.00,VWS V14.01,2013-03-17 07:56:00,
2013-03-17 04:01:00,14.2,8.9,30.00,WNW,302,7.0,14.0,79,0.00,,---,0.00,VWS V14.01,2013-03-17 08:01:00,
2013-03-17 04:06:00,14.1,8.8,30.00,NW,316,5.0,12.0,79,0.00,,---,0.00,VWS V14.01,2013-03-17 08:06:00,
2013-03-17 04:11:00,14.1,8.8,30.00,NW,319,7.0,10.0,79,0.00,,---,0.00,VWS V14.01,2013-03-17 08:11:00,
2013-03-17 04:16:00,14.0,8.7,30.00,NW,304,5.0,12.0,79,0.00,,---,0.00,VWS V14.01,2013-03-17 08:16:00,
2013-03-17 04:21:00,14.1,8.8,30.00,WNW,300,7.0,15.0,79,0.00,,---,0.00,VWS V14.01,2013-03-17 08:21:00,
2013-03-17 04:26:00,14.1,8.8,29.99,WNW,300,5.0,13.0,79,0.00,,---,0.00,VWS V14.01,2013-03-17 08:26:00,
2013-03-17 04:31:00,14.0,8.7,29.99,NW,326,5.0,10.0,79,0.00,,---,0.00,VWS V14.01,2013-03-17 08:31:00,
2013-03-17 04:36:00,13.8,8.8,29.99,NW,312,5.0,12.0,80,0.00,,---,0.00,VWS V14.01,2013-03-17 08:36:00,
2013-03-17 04:41:00,13.7,8.7,29.99,NW,308,6.0,10.0,80,0.00,,---,0.00,VWS V14.01,2013-03-17 08:41:00,
2013-03-17 04:46:00,13.7,8.7,30.00,NNW,328,4.0,10.0,80,0.00,,---,0.00,VWS V14.01,2013-03-17 08:46:00,
2013-03-17 04:51:00,13.5,8.8,29.99,NW,307,6.0,9.0,81,0.00,,---,0.00,VWS V14.01,2013-03-17 08:51:00,
2013-03-17 04:58:00,13.3,8.6,30.00,NW,315,8.0,11.0,81,0.00,,---,0.00,VWS V14.01,2013-03-17 08:58:00,
2013-03-17 05:03:00,13.2,8.5,30.00,NW,311,6.0,8.0,81,0.00,,---,0.00,VWS V14.01,2013-03-17 09:03:00,
2013-03-17 05:08:00,13.2,8.8,30.00,NW,310,5.0,10.0,82,0.00,,---,0.00,VWS V14.01,2013-03-17 09:08:00,
2013-03-17 05:13:00,13.1,8.6,30.00,WNW,302,4.0,8.0,82,0.00,,---,0.00,VWS V14.01,2013-03-17 09:13:00,
2013-03-17 05:18:00,13.0,8.6,30.00,WNW,294,5.0,9.0,82,0.00,,---,0.00,VWS V14.01,2013-03-17 09:18:00,
2013-03-17 05:23:00,13.0,8.6,30.00,NW,311,2.0,7.0,82,0.00,,---,0.00,VWS V14.01,2013-03-17 09:23:00,
2013-03-17 05:28:00,12.8,8.4,30.00,NW,305,4.0,6.0,82,0.00,,---,0.00,VWS V14.01,2013-03-17 09:28:00,
2013-03-17 05:34:00,12.7,8.3,30.00,NW,304,5.0,7.0,82,0.00,,---,0.00,VWS V14.01,2013-03-17 09:34:00,
2013-03-17 05:39:00,12.7,8.5,30.00,NW,320,2.0,6.0,83,0.00,,---,0.00,VWS V14.01,2013-03-17 09:39:00,
2013-03-17 05:44:00,12.5,8.3,30.00,NW,312,2.0,5.0,83,0.00,,---,0.00,VWS V14.01,2013-03-17 09:44:00,
2013-03-17 05:49:00,12.3,8.1,30.00,NW,311,1.0,3.0,83,0.00,,---,0.00,VWS V14.01,2013-03-17 09:49:00,
2013-03-17 05:54:00,12.1,7.9,30.01,WNW,295,1.0,3.0,83,0.00,,---,0.00,VWS V14.01,2013-03-17 09:54:00,
2013-03-17 05:59:00,11.9,8.0,30.01,WNW,295,1.0,3.0,84,0.00,,---,0.00,VWS V14.01,2013-03-17 09:59:00,
2013-03-17 06:04:00,11.7,7.8,30.02,WNW,291,1.0,2.0,84,0.00,,---,0.00,VWS V14.01,2013-03-17 10:04:00,
2013-03-17 06:09:00,11.5,7.9,30.02,WNW,287,2.0,3.0,85,0.00,,---,0.00,VWS V14.01,2013-03-17 10:09:00,
2013-03-17 06:15:00,11.4,7.8,30.03,WNW,290,3.0,3.0,85,0.00,,---,0.00,VWS V14.01,2013-03-17 10:15:00,
2013-03-17 06:20:00,11.4,7.8,30.03,WNW,288,2.0,3.0,85,0.00,,---,0.00,VWS V14.01,2013-03-17 10:20:00,
2013-03-17 06:25:00,11.3,7.7,30.03,WNW,291,1.0,3.0,85,0.00,,---,0.00,VWS V14.01,2013-03-17 10:25:00,
2013-03-17 06:30:00,11.1,7.7,30.03,WNW,292,2.0,3.0,86,0.00,,---,0.00,VWS V14.01,2013-03-17 10:30:00,
2013-03-17 06:35:00,11.2,7.8,30.04,WNW,293,2.0,3.0,86,0.00,,---,0.00,VWS V14.01,2013-03-17 10:35:00,
2013-03-17 06:40:00,11.3,7.9,30.05,WNW,291,3.0,5.0,86,0.00,,---,0.00,VWS V14.01,2013-03-17 10:40:00,
2013-03-17 06:45:00,11.7,8.3,30.05,WNW,290,2.0,4.0,86,0.00,,---,0.00,VWS V14.01,2013-03-17 10:45:00,
2013-03-17 06:50:00,12.2,8.8,30.05,West,275,2.0,4.0,86,0.00,,---,0.00,VWS V14.01,2013-03-17 10:50:00,
2013-03-17 06:56:00,12.8,9.4,30.06,West,278,4.0,6.0,86,0.00,,---,0.00,VWS V14.01,2013-03-17 10:56:00,
2013-03-17 07:01:00,13.2,9.8,30.06,West,279,3.0,5.0,86,0.00,,---,0.00,VWS V14.01,2013-03-17 11:01:00,
2013-03-17 07:06:00,13.4,10.0,30.06,WNW,294,5.0,7.0,86,0.00,,---,0.00,VWS V14.01,2013-03-17 11:06:00,
2013-03-17 07:11:00,13.5,10.4,30.07,WNW,302,3.0,5.0,87,0.00,,---,0.00,VWS V14.01,2013-03-17 11:11:00,
2013-03-17 07:16:00,13.6,10.5,30.07,WNW,293,3.0,6.0,87,0.00,,---,0.00,VWS V14.01,2013-03-17 11:16:00,
2013-03-17 07:21:00,13.7,10.6,30.07,WNW,293,0.0,7.0,87,0.00,,---,0.00,VWS V14.01,2013-03-17 11:21:00,
2013-03-17 07:26:00,13.7,10.6,30.07,WNW,294,5.0,6.0,87,0.00,,---,0.00,VWS V14.01,2013-03-17 11:26:00,
2013-03-17 07:32:00,13.8,10.6,30.07,WNW,292,2.0,5.0,87,0.00,,---,0.00,VWS V14.01,2013-03-17 11:32:00,
2013-03-17 07:37:00,13.9,11.0,30.07,West,273,2.0,5.0,88,0.00,,---,0.00,VWS V14.01,2013-03-17 11:37:00,
2013-03-17 07:43:00,14.1,11.2,30.07,WNW,293,5.0,7.0,88,0.00,,---,0.00,VWS V14.01,2013-03-17 11:43:00,
2013-03-17 07:48:00,14.4,11.5,30.08,NNW,340,4.0,8.0,88,0.00,,---,0.00,VWS V14.01,2013-03-17 11:48:00,
2013-03-17 07:53:00,14.7,11.8,30.08,WNW,290,4.0,8.0,88,0.00,,---,0.00,VWS V14.01,2013-03-17 11:53:00,
2013-03-17 07:58:00,14.9,12.0,30.08,WNW,302,6.0,12.0,88,0.00,,---,0.00,VWS V14.01,2013-03-17 11:58:00,
2013-03-17 08:03:00,15.2,12.3,30.07,WNW,301,7.0,14.0,88,0.00,,---,0.00,VWS V14.01,2013-03-17 12:03:00,
2013-03-17 08:08:00,15.5,12.6,30.07,WNW,295,9.0,14.0,88,0.00,,---,0.00,VWS V14.01,2013-03-17 12:08:00,
2013-03-17 08:13:00,15.8,12.6,30.08,WNW,295,10.0,20.0,87,0.00,,---,0.00,VWS V14.01,2013-03-17 12:13:00,
2013-03-17 08:18:00,16.0,12.8,30.08,NW,304,8.0,16.0,87,0.00,,---,0.00,VWS V14.01,2013-03-17 12:18:00,
2013-03-17 08:23:00,16.2,12.8,30.08,WNW,295,13.0,18.0,86,0.00,,---,0.00,VWS V14.01,2013-03-17 12:23:00,
2013-03-17 08:28:00,16.2,12.5,30.08,NW,310,14.0,26.0,85,0.00,,---,0.00,VWS V14.01,2013-03-17 12:28:00,
2013-03-17 08:33:00,16.2,12.8,30.09,WNW,302,16.0,22.0,86,0.00,,---,0.00,VWS V14.01,2013-03-17 12:33:00,
2013-03-17 08:38:00,16.2,12.5,30.09,WNW,291,13.0,23.0,85,0.00,,---,0.00,VWS V14.01,2013-03-17 12:38:00,
2013-03-17 08:43:00,16.3,12.6,30.09,WNW,297,9.0,21.0,85,0.00,,---,0.00,VWS V14.01,2013-03-17 12:43:00,
2013-03-17 08:48:00,16.5,12.8,30.09,NW,322,10.0,19.0,85,0.00,,---,0.00,VWS V14.01,2013-03-17 12:48:00,
2013-03-17 08:53:00,16.5,12.5,30.10,West,275,12.0,24.0,84,0.00,,---,0.00,VWS V14.01,2013-03-17 12:53:00,
2013-03-17 08:58:00,16.4,11.9,30.10,NW,314,11.0,24.0,82,0.00,,---,0.00,VWS V14.01,2013-03-17 12:58:00,
2013-03-17 09:03:00,16.7,11.9,30.10,NW,308,11.0,19.0,81,0.00,,---,0.00,VWS V14.01,2013-03-17 13:03:00,
2013-03-17 09:08:00,17.1,12.0,30.11,WNW,295,18.0,22.0,80,0.00,,---,0.00,VWS V14.01,2013-03-17 13:08:00,
2013-03-17 09:13:00,17.0,11.3,30.10,WNW,291,11.0,29.0,78,0.00,,---,0.00,VWS V14.01,2013-03-17 13:13:00,
2013-03-17 09:18:00,17.2,11.8,30.11,NW,314,15.0,23.0,79,0.00,,---,0.00,VWS V14.01,2013-03-17 13:18:00,
2013-03-17 09:23:00,17.1,11.4,30.11,WNW,293,25.0,25.0,78,0.00,,---,0.00,VWS V14.01,2013-03-17 13:23:00,
2013-03-17 09:28:00,16.9,10.9,30.11,WNW,290,13.0,24.0,77,0.00,,---,0.00,VWS V14.01,2013-03-17 13:28:00,
2013-03-17 09:33:00,17.2,11.2,30.12,WNW,298,11.0,17.0,77,0.00,,---,0.00,VWS V14.01,2013-03-17 13:33:00,
2013-03-17 09:38:00,17.4,11.4,30.12,WNW,288,13.0,22.0,77,0.00,,---,0.00,VWS V14.01,2013-03-17 13:38:00,
2013-03-17 09:43:00,17.3,10.8,30.12,WNW,300,16.0,25.0,75,0.00,,---,0.00,VWS V14.01,2013-03-17 13:43:00,
2013-03-17 09:48:00,17.5,10.9,30.13,NW,308,9.0,24.0,75,0.00,,---,0.00,VWS V14.01,2013-03-17 13:48:00,
2013-03-17 09:53:00,17.8,10.9,30.13,NW,314,9.0,25.0,74,0.00,,---,0.00,VWS V14.01,2013-03-17 13:53:00,
2013-03-17 09:58:00,18.2,11.6,30.14,NW,316,11.0,18.0,75,0.00,,---,0.00,VWS V14.01,2013-03-17 13:58:00,
2013-03-17 10:03:00,18.4,11.2,30.14,WNW,301,14.0,24.0,73,0.00,,---,0.00,VWS V14.01,2013-03-17 14:03:00,
2013-03-17 10:08:00,18.3,11.1,30.14,NW,316,11.0,21.0,73,0.00,,---,0.00,VWS V14.01,2013-03-17 14:08:00,
2013-03-17 10:13:00,18.5,10.7,30.14,WNW,287,11.0,21.0,71,0.00,,---,0.00,VWS V14.01,2013-03-17 14:13:00,
2013-03-17 10:18:00,18.5,11.0,30.13,NNW,340,15.0,21.0,72,0.00,,---,0.00,VWS V14.01,2013-03-17 14:18:00,
2013-03-17 10:23:00,18.9,11.4,30.14,NNW,333,10.0,23.0,72,0.00,,---,0.00,VWS V14.01,2013-03-17 14:23:00,
2013-03-17 10:28:00,19.0,10.8,30.14,WNW,302,15.0,20.0,70,0.00,,---,0.00,VWS V14.01,2013-03-17 14:28:00,
2013-03-17 10:33:00,19.2,11.0,30.14,NW,316,10.0,18.0,70,0.00,,---,0.00,VWS V14.01,2013-03-17 14:33:00,
2013-03-17 10:38:00,19.5,11.0,30.14,WNW,290,9.0,22.0,69,0.00,,---,0.00,VWS V14.01,2013-03-17 14:38:00,
2013-03-17 10:43:00,19.5,10.3,30.14,NW,308,10.0,22.0,67,0.00,,---,0.00,VWS V14.01,2013-03-17 14:43:00,
2013-03-17 10:48:00,19.7,10.9,30.14,NNW,335,11.0,17.0,68,0.00,,---,0.00,VWS V14.01,2013-03-17 14:48:00,
2013-03-17 10:53:00,19.7,10.5,30.15,NW,308,16.0,19.0,67,0.00,,---,0.00,VWS V14.01,2013-03-17 14:53:00,
2013-03-17 10:58:00,19.9,10.1,30.15,NW,323,10.0,15.0,65,0.00,,---,0.00,VWS V14.01,2013-03-17 14:58:00,
2013-03-17 11:03:00,20.0,9.8,30.15,NW,308,21.0,25.0,64,0.00,,---,0.00,VWS V14.01,2013-03-17 15:03:00,
2013-03-17 11:08:00,20.0,9.4,30.14,WNW,291,8.0,21.0,63,0.00,,---,0.00,VWS V14.01,2013-03-17 15:08:00,
2013-03-17 11:13:00,20.1,9.5,30.15,WNW,294,15.0,23.0,63,0.00,,---,0.00,VWS V14.01,2013-03-17 15:13:00,
2013-03-17 11:18:00,20.1,9.2,30.15,West,269,16.0,22.0,62,0.00,,---,0.00,VWS V14.01,2013-03-17 15:18:00,
2013-03-17 11:23:00,20.3,9.4,30.15,WNW,290,12.0,23.0,62,0.00,,---,0.00,VWS V14.01,2013-03-17 15:23:00,
2013-03-17 11:28:00,20.6,8.9,30.15,WNW,298,18.0,24.0,60,0.00,,---,0.00,VWS V14.01,2013-03-17 15:28:00,
2013-03-17 11:33:00,21.0,9.7,30.15,WNW,303,13.0,18.0,61,0.00,,---,0.00,VWS V14.01,2013-03-17 15:33:00,
2013-03-17 11:38:00,21.4,8.9,30.15,NW,316,9.0,18.0,58,0.00,,---,0.00,VWS V14.01,2013-03-17 15:38:00,
2013-03-17 11:43:00,21.8,8.9,30.15,WNW,298,9.0,20.0,57,0.00,,---,0.00,VWS V14.01,2013-03-17 15:43:00,
2013-03-17 11:48:00,21.8,8.9,30.16,WNW,297,11.0,26.0,57,0.00,,---,0.00,VWS V14.01,2013-03-17 15:48:00,
2013-03-17 11:53:00,21.7,8.4,30.16,WNW,302,7.0,20.0,56,0.00,,---,0.00,VWS V14.01,2013-03-17 15:53:00,
2013-03-17 11:58:00,21.7,8.4,30.16,WNW,302,14.0,20.0,56,0.00,,---,0.00,VWS V14.01,2013-03-17 15:58:00,
2013-03-17 12:03:00,21.9,8.2,30.16,NW,322,10.0,23.0,55,0.00,,---,0.00,VWS V14.01,2013-03-17 16:03:00,
2013-03-17 12:08:00,22.2,7.3,30.16,NW,322,9.0,24.0,52,0.00,,---,0.00,VWS V14.01,2013-03-17 16:08:00,
2013-03-17 12:13:00,22.5,7.1,30.16,NNW,328,14.0,21.0,51,0.00,,---,0.00,VWS V14.01,2013-03-17 16:13:00,
2013-03-17 12:18:00,22.4,6.6,30.16,NW,314,12.0,22.0,50,0.00,,---,0.00,VWS V14.01,2013-03-17 16:18:00,
2013-03-17 12:23:00,22.1,7.2,30.16,WNW,300,11.0,22.0,52,0.00,,---,0.00,VWS V14.01,2013-03-17 16:23:00,
2013-03-17 12:31:00,23.0,8.4,30.16,West,281,16.0,16.0,53,0.00,,---,0.00,VWS V14.01,2013-03-17 16:31:00,
2013-03-17 12:36:00,22.8,8.2,30.16,WNW,298,21.0,26.0,53,0.00,,---,0.00,VWS V14.01,2013-03-17 16:36:00,
2013-03-17 12:41:00,23.0,8.0,30.17,NW,314,7.0,21.0,52,0.00,,---,0.00,VWS V14.01,2013-03-17 16:41:00,
2013-03-17 12:46:00,23.3,8.7,30.17,NW,308,12.0,18.0,53,0.00,,---,0.00,VWS V14.01,2013-03-17 16:46:00,
2013-03-17 12:51:00,23.3,7.4,30.17,NW,319,12.0,26.0,50,0.00,,---,0.00,VWS V14.01,2013-03-17 16:51:00,
2013-03-17 12:56:00,23.5,8.5,30.17,NW,305,11.0,19.0,52,0.00,,---,0.00,VWS V14.01,2013-03-17 16:56:00,
2013-03-17 13:01:00,22.8,7.4,30.17,NW,308,10.0,25.0,51,0.00,,---,0.00,VWS V14.01,2013-03-17 17:01:00,
2013-03-17 13:06:00,23.1,8.1,30.17,WNW,287,7.0,21.0,52,0.00,,---,0.00,VWS V14.01,2013-03-17 17:06:00,
2013-03-17 13:11:00,23.2,8.6,30.17,WNW,297,11.0,22.0,53,0.00,,---,0.00,VWS V14.01,2013-03-17 17:11:00,
2013-03-17 13:16:00,23.6,8.6,30.18,NW,322,11.0,20.0,52,0.00,,---,0.00,VWS V14.01,2013-03-17 17:16:00,
2013-03-17 13:21:00,23.6,7.7,30.17,WNW,291,26.0,30.0,50,0.00,,---,0.00,VWS V14.01,2013-03-17 17:21:00,
2013-03-17 13:26:00,23.4,7.9,30.17,NNW,336,12.0,22.0,51,0.00,,---,0.00,VWS V14.01,2013-03-17 17:26:00,
2013-03-17 13:31:00,23.4,7.9,30.17,NW,319,17.0,25.0,51,0.00,,---,0.00,VWS V14.01,2013-03-17 17:31:00,
2013-03-17 13:36:00,23.5,8.9,30.17,NW,324,20.0,24.0,53,0.00,,---,0.00,VWS V14.01,2013-03-17 17:36:00,
2013-03-17 13:41:00,23.4,8.8,30.17,NW,322,8.0,25.0,53,0.00,,---,0.00,VWS V14.01,2013-03-17 17:41:00,
2013-03-17 13:46:00,23.9,8.4,30.18,NW,304,9.0,24.0,51,0.00,,---,0.00,VWS V14.01,2013-03-17 17:46:00,
2013-03-17 13:51:00,24.1,9.0,30.17,NW,305,14.0,27.0,52,0.00,,---,0.00,VWS V14.01,2013-03-17 17:51:00,
2013-03-17 13:56:00,23.9,8.0,30.18,NW,305,13.0,26.0,50,0.00,,---,0.00,VWS V14.01,2013-03-17 17:56:00,
2013-03-17 14:01:00,24.0,8.5,30.17,WNW,295,16.0,21.0,51,0.00,,---,0.00,VWS V14.01,2013-03-17 18:01:00,
2013-03-17 14:06:00,23.5,8.5,30.17,WNW,303,12.0,24.0,52,0.00,,---,0.00,VWS V14.01,2013-03-17 18:06:00,
2013-03-17 14:11:00,23.9,9.3,30.18,NW,323,10.0,22.0,53,0.00,,---,0.00,VWS V14.01,2013-03-17 18:11:00,
2013-03-17 14:16:00,24.0,9.4,30.18,NNW,333,14.0,18.0,53,0.00,,---,0.00,VWS V14.01,2013-03-17 18:16:00,
2013-03-17 14:21:00,24.2,10.0,30.18,WNW,300,11.0,17.0,54,0.00,,---,0.00,VWS V14.01,2013-03-17 18:21:00,
2013-03-17 14:26:00,24.2,10.0,30.17,NW,304,7.0,22.0,54,0.00,,---,0.00,VWS V14.01,2013-03-17 18:26:00,
2013-03-17 14:31:00,23.2,8.6,30.18,NW,314,10.0,23.0,53,0.00,,---,0.00,VWS V14.01,2013-03-17 18:31:00,
2013-03-17 14:36:00,23.2,9.0,30.18,NNW,334,11.0,25.0,54,0.00,,---,0.00,VWS V14.01,2013-03-17 18:36:00,
2013-03-17 14:41:00,23.1,8.1,30.18,NW,305,8.0,21.0,52,0.00,,---,0.00,VWS V14.01,2013-03-17 18:41:00,
2013-03-17 14:46:00,23.5,8.9,30.17,NNW,335,14.0,22.0,53,0.00,,---,0.00,VWS V14.01,2013-03-17 18:46:00,
2013-03-17 14:51:00,24.0,9.4,30.18,NW,321,8.0,19.0,53,0.00,,---,0.00,VWS V14.01,2013-03-17 18:51:00,
2013-03-17 14:56:00,24.0,8.1,30.18,NW,306,11.0,25.0,50,0.00,,---,0.00,VWS V14.01,2013-03-17 18:56:00,
2013-03-17 15:01:00,23.9,8.0,30.18,NNW,333,10.0,20.0,50,0.00,,---,0.00,VWS V14.01,2013-03-17 19:01:00,
2013-03-17 15:06:00,24.2,9.1,30.18,NW,314,12.0,18.0,52,0.00,,---,0.00,VWS V14.01,2013-03-17 19:06:00,
2013-03-17 15:11:00,24.2,7.3,30.18,WNW,285,12.0,22.0,48,0.00,,---,0.00,VWS V14.01,2013-03-17 19:11:00,
2013-03-17 15:16:00,24.6,8.6,30.18,NW,326,12.0,19.0,50,0.00,,---,0.00,VWS V14.01,2013-03-17 19:16:00,
2013-03-17 15:21:00,24.4,8.4,30.18,NW,311,13.0,20.0,50,0.00,,---,0.00,VWS V14.01,2013-03-17 19:21:00,
2013-03-17 15:26:00,24.6,8.6,30.18,NW,305,14.0,20.0,50,0.00,,---,0.00,VWS V14.01,2013-03-17 19:26:00,
2013-03-17 15:31:00,24.6,8.6,30.18,WNW,293,8.0,23.0,50,0.00,,---,0.00,VWS V14.01,2013-03-17 19:31:00,
2013-03-17 15:36:00,24.7,8.7,30.18,NNW,328,9.0,22.0,50,0.00,,---,0.00,VWS V14.01,2013-03-17 19:36:00,
2013-03-17 15:41:00,24.8,8.8,30.18,WNW,295,12.0,23.0,50,0.00,,---,0.00,VWS V14.01,2013-03-17 19:41:00,
2013-03-17 15:46:00,24.7,7.8,30.18,WNW,300,15.0,20.0,48,0.00,,---,0.00,VWS V14.01,2013-03-17 19:46:00,
2013-03-17 15:51:00,24.9,8.5,30.18,WNW,297,18.0,21.0,49,0.00,,---,0.00,VWS V14.01,2013-03-17 19:51:00,
2013-03-17 15:56:00,25.0,8.1,30.18,WNW,302,13.0,20.0,48,0.00,,---,0.00,VWS V14.01,2013-03-17 19:56:00,
2013-03-17 16:01:00,25.0,8.1,30.18,WNW,298,14.0,22.0,48,0.00,,---,0.00,VWS V14.01,2013-03-17 20:01:00,
2013-03-17 16:06:00,24.7,7.3,30.18,WNW,296,17.0,28.0,47,0.00,,---,0.00,VWS V14.01,2013-03-17 20:06:00,
2013-03-17 16:11:00,24.7,7.3,30.18,WNW,302,12.0,30.0,47,0.00,,---,0.00,VWS V14.01,2013-03-17 20:11:00,
2013-03-17 16:16:00,24.7,7.8,30.18,WNW,298,10.0,22.0,48,0.00,,---,0.00,VWS V14.01,2013-03-17 20:16:00,
2013-03-17 16:21:00,25.1,8.2,30.18,WNW,302,18.0,22.0,48,0.00,,---,0.00,VWS V14.01,2013-03-17 20:21:00,
2013-03-17 16:26:00,25.3,8.8,30.18,WNW,295,12.0,22.0,49,0.00,,---,0.00,VWS V14.01,2013-03-17 20:26:00,
2013-03-17 16:31:00,25.2,7.8,30.18,West,278,23.0,24.0,47,0.00,,---,0.00,VWS V14.01,2013-03-17 20:31:00,
2013-03-17 16:36:00,24.6,8.2,30.18,NNW,328,13.0,26.0,49,0.00,,---,0.00,VWS V14.01,2013-03-17 20:36:00,
2013-03-17 16:41:00,24.6,8.6,30.19,NW,308,14.0,25.0,50,0.00,,---,0.00,VWS V14.01,2013-03-17 20:41:00,
2013-03-17 16:46:00,24.9,8.9,30.19,WNW,291,9.0,16.0,50,0.00,,---,0.00,VWS V14.01,2013-03-17 20:46:00,
2013-03-17 16:51:00,25.2,8.7,30.19,West,281,13.0,16.0,49,0.00,,---,0.00,VWS V14.01,2013-03-17 20:51:00,
2013-03-17 16:56:00,25.4,8.5,30.19,NW,305,15.0,23.0,48,0.00,,---,0.00,VWS V14.01,2013-03-17 20:56:00,
2013-03-17 17:01:00,25.1,8.6,30.19,WNW,287,22.0,24.0,49,0.00,,---,0.00,VWS V14.01,2013-03-17 21:01:00,
2013-03-17 17:06:00,24.8,7.9,30.20,NW,307,15.0,24.0,48,0.00,,---,0.00,VWS V14.01,2013-03-17 21:06:00,
2013-03-17 17:11:00,24.8,8.4,30.19,NW,307,12.0,18.0,49,0.00,,---,0.00,VWS V14.01,2013-03-17 21:11:00,
2013-03-17 17:16:00,24.9,8.9,30.20,NW,305,17.0,21.0,50,0.00,,---,0.00,VWS V14.01,2013-03-17 21:16:00,
2013-03-17 17:21:00,24.9,8.5,30.20,West,278,19.0,20.0,49,0.00,,---,0.00,VWS V14.01,2013-03-17 21:21:00,
2013-03-17 17:26:00,24.8,8.4,30.20,NW,318,15.0,24.0,49,0.00,,---,0.00,VWS V14.01,2013-03-17 21:26:00,
2013-03-17 17:31:00,24.7,7.8,30.20,WNW,302,11.0,22.0,48,0.00,,---,0.00,VWS V14.01,2013-03-17 21:31:00,
2013-03-17 17:36:00,24.7,8.3,30.20,NW,326,10.0,20.0,49,0.00,,---,0.00,VWS V14.01,2013-03-17 21:36:00,
2013-03-17 17:41:00,24.7,8.3,30.20,WNW,290,15.0,23.0,49,0.00,,---,0.00,VWS V14.01,2013-03-17 21:41:00,
2013-03-17 17:46:00,24.5,8.1,30.20,WNW,287,19.0,25.0,49,0.00,,---,0.00,VWS V14.01,2013-03-17 21:46:00,
2013-03-17 17:51:00,24.4,8.4,30.21,WNW,293,12.0,23.0,50,0.00,,---,0.00,VWS V14.01,2013-03-17 21:51:00,
2013-03-17 17:56:00,24.2,8.3,30.21,WNW,298,18.0,27.0,50,0.00,,---,0.00,VWS V14.01,2013-03-17 21:56:00,
2013-03-17 18:01:00,24.2,7.8,30.21,NW,323,8.0,22.0,49,0.00,,---,0.00,VWS V14.01,2013-03-17 22:01:00,
2013-03-17 18:06:00,24.0,8.1,30.22,NW,323,21.0,22.0,50,0.00,,---,0.00,VWS V14.01,2013-03-17 22:06:00,
2013-03-17 18:11:00,23.9,7.5,30.22,WNW,293,22.0,23.0,49,0.00,,---,0.00,VWS V14.01,2013-03-17 22:11:00,
2013-03-17 18:16:00,23.8,7.4,30.22,WNW,301,16.0,23.0,49,0.00,,---,0.00,VWS V14.01,2013-03-17 22:16:00,
2013-03-17 18:21:00,23.8,7.4,30.23,WNW,291,19.0,21.0,49,0.00,,---,0.00,VWS V14.01,2013-03-17 22:21:00,
2013-03-17 18:26:00,23.6,7.3,30.23,WNW,297,13.0,23.0,49,0.00,,---,0.00,VWS V14.01,2013-03-17 22:26:00,
2013-03-17 18:32:00,23.4,7.9,30.23,WNW,293,12.0,15.0,51,0.00,,---,0.00,VWS V14.01,2013-03-17 22:32:00,
2013-03-17 18:37:00,23.3,7.4,30.23,NW,319,14.0,21.0,50,0.00,,---,0.00,VWS V14.01,2013-03-17 22:37:00,
2013-03-17 18:42:00,23.2,7.8,30.23,WNW,301,7.0,19.0,51,0.00,,---,0.00,VWS V14.01,2013-03-17 22:42:00,
2013-03-17 18:47:00,23.0,7.6,30.24,NW,323,12.0,23.0,51,0.00,,---,0.00,VWS V14.01,2013-03-17 22:47:00,
2013-03-17 18:52:00,22.9,7.1,30.24,WNW,302,17.0,20.0,50,0.00,,---,0.00,VWS V14.01,2013-03-17 22:52:00,
2013-03-17 18:57:00,22.6,6.8,30.24,WNW,293,11.0,20.0,50,0.00,,---,0.00,VWS V14.01,2013-03-17 22:57:00,
2013-03-17 19:02:00,22.4,6.6,30.24,NW,317,13.0,21.0,50,0.00,,---,0.00,VWS V14.01,2013-03-17 23:02:00,
2013-03-17 19:07:00,22.1,6.8,30.25,NW,304,6.0,15.0,51,0.00,,---,0.00,VWS V14.01,2013-03-17 23:07:00,
2013-03-17 19:12:00,21.9,7.0,30.25,NW,312,9.0,19.0,52,0.00,,---,0.00,VWS V14.01,2013-03-17 23:12:00,
2013-03-17 19:17:00,21.7,7.2,30.26,NW,319,9.0,16.0,53,0.00,,---,0.00,VWS V14.01,2013-03-17 23:17:00,
2013-03-17 19:22:00,21.7,7.2,30.26,NW,304,7.0,15.0,53,0.00,,---,0.00,VWS V14.01,2013-03-17 23:22:00,
2013-03-17 19:27:00,21.6,7.1,30.26,WNW,298,9.0,16.0,53,0.00,,---,0.00,VWS V14.01,2013-03-17 23:27:00,
2013-03-17 19:32:00,21.5,7.4,30.26,NW,308,7.0,15.0,54,0.00,,---,0.00,VWS V14.01,2013-03-17 23:32:00,
2013-03-17 19:38:00,21.2,7.6,30.26,WNW,285,3.0,12.0,55,0.00,,---,0.00,VWS V14.01,2013-03-17 23:38:00,
2013-03-17 19:43:00,21.0,7.8,30.27,NW,304,5.0,9.0,56,0.00,,---,0.00,VWS V14.01,2013-03-17 23:43:00,
2013-03-17 19:48:00,20.8,8.0,30.27,NW,323,8.0,10.0,57,0.00,,---,0.00,VWS V14.01,2013-03-17 23:48:00,
2013-03-17 19:53:00,20.7,8.3,30.27,NW,314,7.0,10.0,58,0.00,,---,0.00,VWS V14.01,2013-03-17 23:53:00,
2013-03-17 19:58:00,20.6,8.2,30.27,WNW,288,6.0,10.0,58,0.00,,---,0.00,VWS V14.01,2013-03-17 23:58:00,
2013-03-17 20:03:00,20.5,8.1,30.27,WNW,302,6.0,9.0,58,0.00,,---,0.00,VWS V14.01,2013-03-18 00:03:00,
2013-03-17 20:08:00,20.3,8.3,30.28,WNW,301,6.0,8.0,59,0.00,,---,0.00,VWS V14.01,2013-03-18 00:08:00,
2013-03-17 20:13:00,20.4,8.4,30.28,WNW,294,5.0,11.0,59,0.00,,---,0.00,VWS V14.01,2013-03-18 00:13:00,
2013-03-17 20:18:00,20.4,8.4,30.29,WNW,302,6.0,10.0,59,0.00,,---,0.00,VWS V14.01,2013-03-18 00:18:00,
2013-03-17 20:23:00,20.3,8.3,30.29,WNW,288,4.0,10.0,59,0.00,,---,0.00,VWS V14.01,2013-03-18 00:23:00,
2013-03-17 20:28:00,20.1,8.5,30.29,NW,304,4.0,9.0,60,0.00,,---,0.00,VWS V14.01,2013-03-18 00:28:00,
2013-03-17 20:33:00,20.0,8.4,30.29,West,277,4.0,11.0,60,0.00,,---,0.00,VWS V14.01,2013-03-18 00:33:00,
2013-03-17 20:39:00,19.9,8.3,30.29,NW,305,6.0,12.0,60,0.00,,---,0.00,VWS V14.01,2013-03-18 00:39:00,
2013-03-17 20:44:00,19.9,8.3,30.30,WNW,303,7.0,16.0,60,0.00,,---,0.00,VWS V14.01,2013-03-18 00:44:00,
2013-03-17 20:49:00,19.9,7.9,30.30,WNW,302,8.0,11.0,59,0.00,,---,0.00,VWS V14.01,2013-03-18 00:49:00,
2013-03-17 20:54:00,19.8,7.8,30.30,WNW,284,7.0,12.0,59,0.00,,---,0.00,VWS V14.01,2013-03-18 00:54:00,
2013-03-17 20:59:00,19.7,7.7,30.30,NW,310,8.0,10.0,59,0.00,,---,0.00,VWS V14.01,2013-03-18 00:59:00,
2013-03-17 21:04:00,19.7,7.7,30.31,NW,304,5.0,11.0,59,0.00,,---,0.00,VWS V14.01,2013-03-18 01:04:00,
2013-03-17 21:10:00,19.5,7.9,30.31,WNW,297,9.0,11.0,60,0.00,,---,0.00,VWS V14.01,2013-03-18 01:10:00,
2013-03-17 21:15:00,19.3,7.7,30.31,NW,312,7.0,12.0,60,0.00,,---,0.00,VWS V14.01,2013-03-18 01:15:00,
2013-03-17 21:20:00,19.2,8.0,30.31,WNW,291,4.0,9.0,61,0.00,,---,0.00,VWS V14.01,2013-03-18 01:20:00,
2013-03-17 21:26:00,19.1,7.9,30.32,NW,322,6.0,11.0,61,0.00,,---,0.00,VWS V14.01,2013-03-18 01:26:00,
2013-03-17 21:31:00,19.0,7.8,30.32,NW,304,4.0,10.0,61,0.00,,---,0.00,VWS V14.01,2013-03-18 01:31:00,
2013-03-17 21:36:00,18.9,7.7,30.32,WNW,291,6.0,9.0,61,0.00,,---,0.00,VWS V14.01,2013-03-18 01:36:00,
2013-03-17 21:42:00,18.9,7.7,30.32,NW,305,8.0,11.0,61,0.00,,---,0.00,VWS V14.01,2013-03-18 01:42:00,
2013-03-17 21:47:00,18.7,7.9,30.32,WNW,300,11.0,11.0,62,0.00,,---,0.00,VWS V14.01,2013-03-18 01:47:00,
2013-03-17 21:52:00,18.8,7.6,30.32,NW,326,9.0,14.0,61,0.00,,---,0.00,VWS V14.01,2013-03-18 01:52:00,
2013-03-17 21:58:00,18.7,7.5,30.32,NW,318,5.0,14.0,61,0.00,,---,0.00,VWS V14.01,2013-03-18 01:58:00,
2013-03-17 22:03:00,18.5,7.3,30.33,WNW,295,8.0,11.0,61,0.00,,---,0.00,VWS V14.01,2013-03-18 02:03:00,
2013-03-17 22:08:00,18.4,7.6,30.33,NW,312,6.0,13.0,62,0.00,,---,0.00,VWS V14.01,2013-03-18 02:08:00,
2013-03-17 22:13:00,18.4,7.2,30.33,NW,309,11.0,16.0,61,0.00,,---,0.00,VWS V14.01,2013-03-18 02:13:00,
2013-03-17 22:18:00,18.3,7.1,30.33,WNW,301,8.0,13.0,61,0.00,,---,0.00,VWS V14.01,2013-03-18 02:18:00,
2013-03-17 22:24:00,18.2,7.0,30.33,NW,315,8.0,13.0,61,0.00,,---,0.00,VWS V14.01,2013-03-18 02:24:00,
2013-03-17 22:30:00,17.9,7.1,30.33,WNW,294,7.0,10.0,62,0.00,,---,0.00,VWS V14.01,2013-03-18 02:30:00,
2013-03-17 22:35:00,18.0,6.8,30.33,NW,308,8.0,13.0,61,0.00,,---,0.00,VWS V14.01,2013-03-18 02:35:00,
2013-03-17 22:40:00,17.9,6.7,30.33,NW,307,6.0,14.0,61,0.00,,---,0.00,VWS V14.01,2013-03-18 02:40:00,
2013-03-17 22:46:00,17.7,6.9,30.33,NW,308,9.0,13.0,62,0.00,,---,0.00,VWS V14.01,2013-03-18 02:46:00,
2013-03-17 22:52:00,17.5,6.7,30.33,NW,304,8.0,13.0,62,0.00,,---,0.00,VWS V14.01,2013-03-18 02:52:00,
2013-03-17 22:58:00,17.5,6.7,30.33,NW,309,11.0,14.0,62,0.00,,---,0.00,VWS V14.01,2013-03-18 02:58:00,
2013-03-17 23:03:00,17.4,6.6,30.33,WNW,301,8.0,11.0,62,0.00,,---,0.00,VWS V14.01,2013-03-18 03:03:00,
2013-03-17 23:08:00,17.2,6.8,30.34,WNW,303,9.0,9.0,63,0.00,,---,0.00,VWS V14.01,2013-03-18 03:08:00,
2013-03-17 23:13:00,17.0,6.6,30.34,NNW,333,2.0,9.0,63,0.00,,---,0.00,VWS V14.01,2013-03-18 03:13:00,
2013-03-17 23:18:00,16.8,6.4,30.34,NW,309,3.0,7.0,63,0.00,,---,0.00,VWS V14.01,2013-03-18 03:18:00,
2013-03-17 23:23:00,16.6,6.6,30.34,NW,304,5.0,8.0,64,0.00,,---,0.00,VWS V14.01,2013-03-18 03:23:00,
2013-03-17 23:28:00,16.5,6.5,30.34,WNW,295,4.0,7.0,64,0.00,,---,0.00,VWS V14.01,2013-03-18 03:28:00,
2013-03-17 23:34:00,16.3,6.6,30.34,ENE,60,2.0,5.0,65,0.00,,---,0.00,VWS V14.01,2013-03-18 03:34:00,
2013-03-17 23:39:00,16.2,6.5,30.35,WNW,301,3.0,4.0,65,0.00,,---,0.00,VWS V14.01,2013-03-18 03:39:00,
2013-03-17 23:44:00,16.0,6.3,30.35,NW,323,3.0,5.0,65,0.00,,---,0.00,VWS V14.01,2013-03-18 03:44:00,
2013-03-17 23:50:00,15.8,6.5,30.34,NNW,329,3.0,6.0,66,0.00,,---,0.00,VWS V14.01,2013-03-18 03:50:00,
2013-03-17 23:55:00,15.6,6.3,30.34,NNW,330,3.0,5.0,66,0.00,,---,0.00,VWS V14.01,2013-03-18 03:55:00,